Location: Katowice
(50.2611°N, 19.0242°E)
Time: 10:47:16
(UTC+02:00)

A-11 Canister half - Pass Details

Date: 26 July 2019
Orbit: 1526 x 1683 km, 47.3° (Epoch: 21 August)

Event Time Altitude Azimuth Distance (km) Brightness Sun altitude
Rises 00:50:19 0° 282° (WNW) 4,884 11.8 -20.2°
Reaches altitude 10° 00:53:32 10° 279° (W) 3,877 11.2 -20.2°
Maximum altitude 01:03:09 61° 203° (SSW) 1,784 9.0 -20.1°
Drops below altitude 10° 01:12:27 10° 126° (SE) 3,747 10.7 -20.0°
Sets 01:15:30 0° 123° (ESE) 4,712 11.3 -20.0°
